| time (UTC) | temp C | wind direction | speed KPH | gust KPH | rain 1hr cm | rain 24hr cm | rain mn cm | humidity % | barometer mb |
| 20260506234512 | 11 | 355 | 1.6 | 9.7 | 0.00 | 0.00 | 0.00 | 60 | 1015.1 |
| 20260506233009 | 11 | 5 | 0.0 | 9.7 | 0.00 | 0.00 | 0.00 | 60 | 1015.1 |
| 20260506231508 | 11 | 355 | 1.6 | 11.3 | 0.00 | 0.00 | 0.00 | 59 | 1015.4 |
| 20260506230009 | 11 | 171 | 0.0 | 4.8 | 0.00 | 0.00 | 0.00 | 63 | 1015.3 |
| 20260506224507 | 11 | 165 | 0.0 | 11.3 | 0.00 | 0.00 | 0.00 | 61 | 1015.6 |
| 20260506223005 | 12 | 49 | 0.0 | 9.7 | 0.00 | 0.00 | 0.00 | 59 | 1015.6 |
| 20260506221503 | 12 | 26 | 1.6 | 12.9 | 0.00 | 0.00 | 0.00 | 60 | 1015.1 |
| 20260506220002 | 12 | 347 | 3.2 | 12.9 | 0.00 | 0.00 | 0.00 | 60 | 1014.8 |
| 20260506214600 | 12 | 231 | 3.2 | 11.3 | 0.00 | 0.00 | 0.00 | 60 | 1014.7 |
| 20260506213122 | 12 | 9 | 6.4 | 12.9 | 0.00 | 0.00 | 0.00 | 60 | 1014.5 |
| 20260506211558 | 12 | 337 | 3.2 | 12.9 | 0.00 | 0.00 | 0.00 | 61 | 1014.3 |
| 20260506210057 | 12 | 9 | 3.2 | 14.5 | 0.00 | 0.00 | 0.00 | 60 | 1014.2 |
| 20260506204556 | 13 | 272 | 1.6 | 19.3 | 0.00 | 0.00 | 0.00 | 59 | 1014.2 |
| 20260506203055 | 13 | 228 | 3.2 | 12.9 | 0.00 | 0.00 | 0.00 | 61 | 1014.0 |
| 20260506201555 | 13 | 313 | 6.4 | 16.1 | 0.00 | 0.00 | 0.00 | 58 | 1014.0 |
| 20260506200055 | 13 | 19 | 6.4 | 19.3 | 0.00 | 0.00 | 0.00 | 59 | 1013.9 |
| 20260506194554 | 14 | 20 | 3.2 | 16.1 | 0.00 | 0.00 | 0.00 | 57 | 1013.8 |
| 20260506193053 | 14 | 285 | 4.8 | 16.1 | 0.00 | 0.00 | 0.00 | 57 | 1013.6 |
| 20260506191553 | 14 | 284 | 4.8 | 17.7 | 0.00 | 0.00 | 0.00 | 56 | 1013.8 |
| 20260506190053 | 14 | 333 | 1.6 | 14.5 | 0.00 | 0.00 | 0.00 | 59 | 1013.7 |
| 20260506184552 | 13 | 13 | 6.4 | 17.7 | 0.00 | 0.00 | 0.00 | 59 | 1013.9 |
| 20260506183056 | 13 | 350 | 9.7 | 19.3 | 0.00 | 0.00 | 0.00 | 58 | 1014.0 |
| 20260506181615 | 13 | 348 | 1.6 | 11.3 | 0.00 | 0.00 | 0.00 | 62 | 1013.9 |
| 20260506180049 | 13 | 330 | 6.4 | 19.3 | 0.00 | 0.00 | 0.00 | 62 | 1014.0 |
| 20260506174547 | 13 | 9 | 3.2 | 14.5 | 0.00 | 0.00 | 0.00 | 58 | 1014.0 |
| 20260506173057 | 13 | 5 | 1.6 | 16.1 | 0.00 | 0.00 | 0.00 | 63 | 1014.0 |
| 20260506171546 | 12 | 5 | 4.8 | 17.7 | 0.00 | 0.00 | 0.00 | 64 | 1013.9 |
| 20260506170048 | 12 | 49 | 4.8 | 11.3 | 0.00 | 0.00 | 0.00 | 66 | 1013.7 |
| 20260506164546 | 12 | 360 | 6.4 | 17.7 | 0.00 | 0.00 | 0.00 | 70 | 1014.2 |
| 20260506163043 | 12 | 24 | 3.2 | 16.1 | 0.00 | 0.00 | 0.00 | 67 | 1013.8 |
| 20260506161540 | 12 | 311 | 3.2 | 14.5 | 0.00 | 0.00 | 0.00 | 70 | 1013.8 |
| 20260506160044 | 11 | 331 | 3.2 | 12.9 | 0.00 | 0.00 | 0.00 | 78 | 1013.7 |
| 20260506154536 | 11 | 341 | 3.2 | 12.9 | 0.00 | 0.00 | 0.00 | 78 | 1013.5 |
| 20260506153041 | 10 | 21 | 4.8 | 12.9 | 0.00 | 0.00 | 0.00 | 80 | 1013.4 |
| 20260506151534 | 10 | 27 | 3.2 | 9.7 | 0.00 | 0.00 | 0.00 | 83 | 1013.2 |
| 20260506150033 | 10 | 17 | 3.2 | 11.3 | 0.00 | 0.00 | 0.00 | 86 | 1013.3 |
| 20260506144528 | 9 | 16 | 3.2 | 12.9 | 0.00 | 0.00 | 0.00 | 87 | 1013.0 |
| 20260506143031 | 8 | 15 | 6.4 | 12.9 | 0.00 | 0.00 | 0.00 | 88 | 1012.6 |
| 20260506141525 | 8 | 19 | 4.8 | 12.9 | 0.00 | 0.00 | 0.00 | 89 | 1012.6 |
| 20260506140025 | 8 | 355 | 4.8 | 16.1 | 0.00 | 0.00 | 0.00 | 90 | 1012.4 |
| 20260506134521 | 8 | 17 | 3.2 | 9.7 | 0.00 | 0.00 | 0.00 | 90 | 1012.2 |
| 20260506133020 | 7 | 350 | 3.2 | 9.7 | 0.00 | 0.00 | 0.00 | 90 | 1012.0 |
| 20260506131529 | 7 | 343 | 1.6 | 8.0 | 0.00 | 0.00 | 0.00 | 89 | 1012.0 |
| 20260506130021 | 7 | 15 | 6.4 | 14.5 | 0.00 | 0.00 | 0.00 | 89 | 1012.0 |
| 20260506124515 | 7 | 22 | 1.6 | 11.3 | 0.00 | 0.00 | 0.00 | 88 | 1011.0 |
| 20260506123015 | 7 | 21 | 4.8 | 11.3 | 0.00 | 0.00 | 0.00 | 88 | 1011.2 |
| 20260506121514 | 7 | 13 | 3.2 | 14.5 | 0.00 | 0.00 | 0.00 | 88 | 1010.9 |
| 20260506120019 | 7 | 350 | 3.2 | 9.7 | 0.00 | 0.00 | 0.00 | 89 | 1010.9 |
| 20260506114519 | 7 | 19 | 3.2 | 9.7 | 0.00 | 0.00 | 0.00 | 89 | 1010.7 |
| 20260506113023 | 7 | 355 | 3.2 | 14.5 | 0.00 | 0.00 | 0.00 | 89 | 1010.4 |
| 20260506111507 | 7 | 15 | 3.2 | 11.3 | 0.00 | 0.00 | 0.00 | 89 | 1009.7 |
| 20260506110011 | 7 | 9 | 4.8 | 17.7 | 0.00 | 0.00 | 0.00 | 89 | 1010.0 |
| 20260506104504 | 7 | 342 | 3.2 | 14.5 | 0.00 | 0.00 | 0.00 | 89 | 1010.1 |
| 20260506103001 | 7 | 17 | 6.4 | 16.1 | 0.00 | 0.00 | 0.00 | 89 | 1009.3 |
| 20260506101558 | 7 | 23 | 1.6 | 11.3 | 0.00 | 0.00 | 0.00 | 89 | 1008.8 |
| 20260506100057 | 7 | 23 | 3.2 | 14.5 | 0.00 | 0.00 | 0.00 | 89 | 1008.4 |
| 20260506094555 | 7 | 22 | 3.2 | 14.5 | 0.00 | 0.00 | 0.00 | 89 | 1008.9 |
| 20260506093053 | 7 | 18 | 6.4 | 22.5 | 0.00 | 0.00 | 0.00 | 89 | 1009.0 |
| 20260506091555 | 7 | 10 | 9.7 | 19.3 | 0.00 | 0.00 | 0.00 | 89 | 1008.4 |
| 20260506090053 | 8 | 24 | 6.4 | 12.9 | 0.00 | 0.00 | 0.00 | 88 | 1008.8 |
| 20260506084547 | 8 | 355 | 6.4 | 17.7 | 0.00 | 0.00 | 0.00 | 89 | 1008.6 |
| 20260506083041 | 8 | 31 | 4.8 | 16.1 | 0.00 | 0.00 | 0.00 | 88 | 1008.4 |
| 20260506081539 | 8 | 16 | 6.4 | 17.7 | 0.00 | 0.00 | 0.00 | 88 | 1008.3 |
| 20260506073031 | 9 | 335 | 4.8 | 11.3 | 0.00 | 0.00 | 0.00 | 88 | 1007.6 |
| 20260506071529 | 10 | 342 | 4.8 | 14.5 | 0.00 | 0.00 | 0.00 | 88 | 1007.6 |
| 20260506061520 | 11 | 11 | 0.0 | 0.0 | 0.00 | 0.00 | 0.00 | 88 | 1007.5 |
| 20260506044506 | 13 | 200 | 0.0 | 4.8 | 0.00 | 0.00 | 0.00 | 87 | 1008.2 |
| 20260506043005 | 13 | 200 | 0.0 | 8.0 | 0.00 | 0.00 | 0.00 | 87 | 1008.3 |
| 20260506041504 | 13 | 183 | 0.0 | 8.0 | 0.00 | 0.00 | 0.00 | 87 | 1008.3 |
| 20260506040001 | 13 | 172 | 3.2 | 9.7 | 0.00 | 0.00 | 0.00 | 87 | 1008.5 |
| 20260506034615 | 13 | 193 | 3.2 | 9.7 | 0.00 | 0.00 | 0.00 | 87 | 1008.8 |
| 20260506033059 | 13 | 217 | 4.8 | 11.3 | 0.00 | 0.00 | 0.00 | 87 | 1009.0 |
| 20260506031608 | 13 | 223 | 0.0 | 9.7 | 0.00 | 0.00 | 0.00 | 87 | 1009.2 |
| 20260506030057 | 13 | 215 | 1.6 | 11.3 | 0.00 | 0.00 | 0.00 | 88 | 1009.0 |
| 20260506024616 | 14 | 180 | 1.6 | 8.0 | 0.00 | 0.00 | 0.00 | 87 | 1009.2 |
| 20260506023055 | 14 | 198 | 4.8 | 9.7 | 0.00 | 0.00 | 0.00 | 87 | 1009.3 |
| 20260506021557 | 14 | 221 | 1.6 | 9.7 | 0.00 | 0.00 | 0.00 | 87 | 1009.4 |
| 20260506020054 | 14 | 207 | 1.6 | 9.7 | 0.00 | 0.00 | 0.00 | 88 | 1009.3 |
| 20260506014554 | 14 | 194 | 3.2 | 8.0 | 0.00 | 0.00 | 0.00 | 88 | 1009.1 |
| 20260506013104 | 14 | 199 | 0.0 | 8.0 | 0.00 | 0.00 | 0.00 | 88 | 1008.8 |
| 20260506011605 | 14 | 171 | 0.0 | 9.7 | 0.00 | 0.00 | 0.00 | 88 | 1008.8 |
| 20260506010056 | 14 | 215 | 3.2 | 11.3 | 0.00 | 0.00 | 0.00 | 88 | 1009.0 |
| 20260506004551 | 14 | 242 | 4.8 | 12.9 | 0.00 | 0.00 | 0.00 | 88 | 1009.1 |
| 20260506003050 | 14 | 206 | 3.2 | 8.0 | 0.00 | 0.00 | 0.00 | 88 | 1009.0 |
| 20260506001549 | 14 | 214 | 1.6 | 8.0 | 0.00 | 0.00 | 0.00 | 88 | 1009.0 |
| 20260506000051 | 14 | 222 | 1.6 | 9.7 | 0.00 | 0.00 | 0.00 | 88 | 1008.9 |